DW6455 Weather Reports


time (UTC)temp
C
wind
direction
speed
KPH
gust
KPH
rain 1hr
cm
rain 24hr
cm
rain mn
cm
humidity
%
barometer
mb
20260508115531 13 293 4.8 19.3 0.00 0.00 0.00 31 1025.8
20260508114531 13 338 6.4 16.1 0.00 0.00 0.00 31 1025.8
20260508113530 13 23 4.8 12.9 0.00 0.00 0.00 30 1025.8
20260508112530 12 315 6.4 16.1 0.00 0.00 0.00 30 1025.8
20260508111532 13 338 9.7 16.1 0.00 0.00 0.00 31 1025.9
20260508110532 12 0 4.8 12.9 0.00 0.00 0.00 32 1025.8
20260508105532 13 338 11.3 19.3 0.00 0.00 0.00 33 1025.8
20260508104531 12 0 8.0 19.3 0.00 0.00 0.00 32 1025.8
20260508103531 12 0 11.3 17.7 0.00 0.00 0.00 33 1025.8
20260508102530 12 338 11.3 19.3 0.00 0.00 0.00 33 1025.7
20260508101550 12 0 9.7 20.9 0.00 0.00 0.00 34 1025.7
20260508100531 12 0 6.4 20.9 0.00 0.00 0.00 34 1025.6
20260508095531 12 68 6.4 14.5 0.00 0.00 0.00 34 1025.6
20260508094530 11 293 4.8 16.1 0.00 0.00 0.00 38 1025.8
20260508093531 11 45 4.8 14.5 0.00 0.00 0.00 37 1025.6
20260508092611 12 0 8.0 19.3 0.00 0.00 0.00 35 1025.7
20260508091551 12 338 9.7 22.5 0.00 0.00 0.00 38 1025.7
20260508090530 12 315 12.9 19.3 0.00 0.00 0.00 38 1025.8
20260508085530 11 0 8.0 17.7 0.00 0.00 0.00 34 1025.7
20260508084530 11 338 9.7 19.3 0.00 0.00 0.00 40 1025.8
20260508083530 11 315 8.0 17.7 0.00 0.00 0.00 37 1025.7
20260508082530 11 0 12.9 27.4 0.00 0.00 0.00 36 1025.7
20260508081530 11 338 11.3 24.1 0.00 0.00 0.00 36 1025.6
20260508080532 11 0 11.3 27.4 0.00 0.00 0.00 37 1025.6
20260508075533 11 315 6.4 17.7 0.00 0.00 0.00 42 1025.5
20260508074531 11 338 8.0 22.5 0.00 0.00 0.00 42 1025.4
20260508073531 10 338 4.8 14.5 0.00 0.00 0.00 46 1025.4
20260508072531 10 338 9.7 20.9 0.00 0.00 0.00 47 1025.4
20260508071610 10 338 6.4 17.7 0.00 0.00 0.00 49 1025.3
20260508070530 10 338 8.0 17.7 0.00 0.00 0.00 50 1025.2
20260508065530 10 293 4.8 24.1 0.00 0.00 0.00 51 1025.1
20260508064530 9 293 3.2 11.3 0.00 0.00 0.00 52 1025.1
20260508063530 9 293 6.4 14.5 0.00 0.00 0.00 54 1025.0
20260508062531 8 0 3.2 12.9 0.00 0.00 0.00 56 1025.0
20260508061530 8 315 4.8 16.1 0.00 0.00 0.00 57 1024.9
20260508060531 8 338 4.8 12.9 0.00 0.00 0.00 59 1024.8
20260508055530 8 338 8.0 17.7 0.00 0.00 0.00 58 1024.7
20260508054530 8 338 6.4 19.3 0.00 0.00 0.00 59 1024.6
20260508053530 8 23 6.4 14.5 0.00 0.00 0.00 58 1024.6
20260508052550 8 45 4.8 8.0 0.00 0.00 0.00 59 1024.5
20260508051530 7 338 1.6 9.7 0.00 0.00 0.00 63 1024.3
20260508050530 6 338 1.6 6.4 0.00 0.00 0.00 68 1024.2
20260508045531 5 338 1.6 6.4 0.00 0.00 0.00 72 1024.1
20260508044531 4 338 1.6 8.0 0.00 0.00 0.00 74 1024.1
20260508043532 3 338 3.2 6.4 0.00 0.00 0.00 76 1024.0
20260508042531 3 338 1.6 6.4 0.00 0.00 0.00 77 1023.9
20260508041531 2 338 3.2 8.0 0.00 0.00 0.00 78 1023.8
20260508040532 2 338 1.6 8.0 0.00 0.00 0.00 78 1023.7
20260508035530 1 0.0 0.0 0.00 0.00 0.00 76 1023.6
20260508034530 1 0.0 0.0 0.00 0.00 0.00 73 1023.5
20260508033550 0 0.0 0.0 0.00 0.00 0.00 71 1023.4
20260508032531 0 0.0 0.0 0.00 0.00 0.00 71 1023.2
20260508031530 -1 0.0 0.0 0.00 0.00 0.00 72 1023.0
20260508030530 -1 0.0 1.6 0.00 0.00 0.00 72 1023.1
20260508025530 -1 0.0 0.0 0.00 0.00 0.00 70 1023.0
20260508024530 -1 0.0 0.0 0.00 0.00 0.00 69 1022.8
20260508023530 -2 0.0 0.0 0.00 0.00 0.00 70 1022.7
20260508022530 -2 0.0 0.0 0.00 0.00 0.00 72 1022.5
20260508021530 -2 0.0 0.0 0.00 0.00 0.00 74 1022.5
20260508020531 -2 0.0 0.0 0.00 0.00 0.00 75 1022.4
20260508015531 -2 0.0 0.0 0.00 0.00 0.00 76 1022.4
20260508014531 -1 0.0 0.0 0.00 0.00 0.00 76 1022.2
20260508013533 -1 0.0 0.0 0.00 0.00 0.00 76 1022.1
20260508012533 -1 0.0 0.0 0.00 0.00 0.00 76 1022.1
20260508011530 -1 0.0 0.0 0.00 0.00 0.00 77 1022.0
20260508010532 -1 0.0 0.0 0.00 0.00 0.00 78 1021.9
20260508005532 -1 0.0 0.0 0.00 0.00 0.00 79 1021.8
20260508004530 -1 0.0 0.0 0.00 0.00 0.00 79 1021.6
20260508003531 -1 0.0 0.0 0.00 0.00 0.00 79 1021.6
20260508002531 -1 0.0 0.0 0.00 0.00 0.00 79 1021.5
20260508001530 -1 0.0 1.6 0.00 0.00 0.00 79 1021.4
20260508000531 -1 0.0 0.0 0.00 0.00 0.00 79 1021.3
20260507235551 0 0.0 0.0 0.00 0.00 0.00 79 1021.2
20260507234530 0 0.0 1.6 0.00 0.00 0.00 78 1021.1
20260507233531 0 0.0 0.0 0.00 0.00 0.00 78 1021.0
20260507232531 0 0.0 0.0 0.00 0.00 0.00 78 1021.0
20260507231531 0 0.0 0.0 0.00 0.00 0.00 77 1020.9
20260507230611 0 0.0 0.0 0.00 0.00 0.00 76 1020.8
20260507225531 0 0.0 0.0 0.00 0.00 0.00 75 1020.7
20260507224532 0 0.0 3.2 0.00 0.00 0.00 74 1020.6
20260507223531 0 0.0 0.0 0.00 0.00 0.00 74 1020.4
20260507222531 0 0.0 0.0 0.00 0.00 0.00 72 1020.2
20260507221530 1 0.0 4.8 0.00 0.00 0.00 71 1020.1
20260507220550 1 0.0 0.0 0.00 0.00 0.00 69 1020.1
20260507215531 1 0.0 1.6 0.00 0.00 0.00 69 1020.0
20260507214531 1 338 3.2 4.8 0.00 0.00 0.00 68 1019.9
20260507213551 1 338 3.2 6.4 0.00 0.00 0.00 67 1019.6
20260507212530 2 338 3.2 4.8 0.00 0.00 0.00 66 1019.5
20260507211531 2 338 4.8 6.4 0.00 0.00 0.00 64 1019.4
20260507210531 3 338 4.8 8.0 0.00 0.00 0.00 62 1019.3
20260507205530 3 338 4.8 8.0 0.00 0.00 0.00 61 1019.2
20260507204530 3 338 4.8 6.4 0.00 0.00 0.00 59 1019.0
20260507203531 4 338 4.8 8.0 0.00 0.00 0.00 58 1018.8
20260507202530 5 338 6.4 9.7 0.00 0.00 0.00 57 1018.6
20260507201530 4 338 8.0 14.5 0.00 0.00 0.00 58 1018.5
20260507200531 4 315 6.4 12.9 0.00 0.00 0.00 58 1018.2
20260507195532 5 338 6.4 12.9 0.00 0.00 0.00 57 1018.1
20260507194532 5 338 4.8 14.5 0.00 0.00 0.00 55 1017.9
20260507193532 6 315 4.8 8.0 0.00 0.00 0.00 53 1017.8
20260507192531 6 315 1.6 4.8 0.00 0.00 0.00 52 1017.7
20260507191530 6 315 3.2 6.4 0.00 0.00 0.00 51 1017.6
20260507190531 7 315 4.8 11.3 0.00 0.00 0.00 51 1017.5
20260507185531 7 315 4.8 12.9 0.00 0.00 0.00 50 1017.3
20260507184551 7 315 3.2 8.0 0.00 0.00 0.00 50 1017.2
20260507183531 8 315 3.2 8.0 0.00 0.00 0.00 48 1017.1
20260507182552 8 315 4.8 8.0 0.00 0.00 0.00 47 1017.0
20260507181531 8 293 8.0 16.1 0.00 0.00 0.00 45 1016.9
20260507180531 9 315 8.0 17.7 0.00 0.00 0.00 43 1016.8
20260507175531 9 293 8.0 19.3 0.00 0.00 0.00 41 1016.7
20260507174531 9 293 8.0 17.7 0.00 0.00 0.00 40 1016.6
20260507173531 10 315 9.7 24.1 0.00 0.00 0.00 40 1016.4
20260507172531 10 315 1.6 6.4 0.00 0.00 0.00 38 1016.3
20260507171532 10 293 8.0 22.5 0.00 0.00 0.00 37 1016.2
20260507170531 10 293 6.4 16.1 0.00 0.00 0.00 37 1016.1
20260507165552 11 293 4.8 19.3 0.00 0.00 0.00 37 1016.2
20260507164533 11 293 3.2 9.7 0.00 0.00 0.00 37 1016.1
20260507163531 11 293 4.8 16.1 0.00 0.00 0.00 35 1015.9
20260507162531 11 315 9.7 20.9 0.00 0.00 0.00 35 1015.9
20260507161531 11 270 12.9 29.0 0.00 0.00 0.00 33 1015.8
20260507160530 12 270 9.7 24.1 0.00 0.00 0.00 34 1015.6
20260507155531 12 315 4.8 14.5 0.00 0.00 0.00 35 1015.6
20260507154531 12 315 8.0 20.9 0.00 0.00 0.00 34 1015.4
20260507153532 12 293 3.2 11.3 0.00 0.00 0.00 35 1015.4
20260507152531 12 293 9.7 20.9 0.00 0.00 0.00 34 1015.4
20260507151551 12 315 9.7 22.5 0.00 0.00 0.00 34 1015.3
20260507150530 12 315 9.7 22.5 0.00 0.00 0.00 33 1015.3
20260507145530 12 315 6.4 17.7 0.00 0.00 0.00 33 1015.3
20260507144530 12 315 6.4 16.1 0.00 0.00 0.00 31 1015.2
20260507143531 12 315 8.0 19.3 0.00 0.00 0.00 32 1015.2
20260507142530 12 315 3.2 8.0 0.00 0.00 0.00 31 1015.1
20260507141551 12 293 4.8 14.5 0.00 0.00 0.00 29 1015.1
20260507140530 12 293 6.4 17.7 0.00 0.00 0.00 29 1015.1
20260507135531 12 270 6.4 17.7 0.00 0.00 0.00 28 1015.1
20260507134531 12 293 8.0 17.7 0.00 0.00 0.00 28 1015.0
20260507133551 12 315 1.6 14.5 0.00 0.00 0.00 29 1015.0
20260507132531 12 293 3.2 9.7 0.00 0.00 0.00 29 1015.1
20260507131531 12 293 6.4 19.3 0.00 0.00 0.00 27 1015.1
20260507130530 13 338 11.3 17.7 0.00 0.00 0.00 27 1015.0
20260507125531 12 315 11.3 19.3 0.00 0.00 0.00 30 1015.1
20260507124531 12 338 6.4 16.1 0.00 0.00 0.00 27 1015.1
20260507123530 12 293 4.8 20.9 0.00 0.00 0.00 27 1015.1
20260507122531 12 293 4.8 16.1 0.00 0.00 0.00 29 1015.1
20260507121611 12 293 4.8 16.1 0.00 0.00 0.00 29 1015.1
20260507120531 12 158 4.8 12.9 0.00 0.00 0.00 31 1015.1